ZHUHAI-1 OVS-02 (43440 NORAD) Tracking and Keplerian Element Data

This shows tracking and keplerian element data for the satellite.

Feedback or suggestion? Click here.




ElementValue
Catalog43440
NameZHUHAI-1 OVS-02
Epoch Orbit450
Epoch Day145.83641417
Epoch Year2018
RAAN228.1698
Inclination97.395
Eccentricity0.0010847
Argument of Perigee195.4836
Mean Anonmoly275.1913
Mean Motion15.17748169
Decay Rate7.91E-06
L11 43440U 18040B 18145.83641417 .00000791 00000-0 42431-4 0 9996
L22 43440 97.3950 228.1698 0010847 195.4836 275.1913 15.17748169 4508

Live tracking and technical data element details for ZHUHAI-1 OVS-02 (NORAD 43440). ZHUHAI-1 OVS-02 can be tracked NOW for your location showing map with azimuth and elevation plus other details from your city location.

Track the satellite on the map from your city or location and see movement details for azimuth, elevation, latitude, longitude, range, height, and movement on the map or in text.







IsCatalogInMostPopularTable: catalog: 43440, numindb: 62
Update: records affected: 1



GetName: 43440 ZHUHAI-1 OVS-02

Hit Count: updated at: Tue, 20 Nov 2018 08:10:59 GMT